Location: Dealu Mare
(46.0500°N, 22.8167°E)
Time: 22:18:53
(UTC+00:00)

Cosmos 1408 Rocket - Pass Details

Date: 15 January 2026
Orbit: 594 x 623 km, 82.6° (Epoch: 13 February)

Event Time Altitude Azimuth Distance (km) Brightness Sun altitude
Rises 04:39:57 0° 209° (SSW) 2,862 6.8 -14.7°
Reaches altitude 10° 04:42:19 10° 219° (SW) 1,957 5.9 -14.3°
Maximum altitude 04:46:17 35° 285° (WNW) 989 4.1 -13.7°
Drops below altitude 10° 04:50:16 10° 352° (N) 1,955 5.9 -13.0°
Sets 04:52:38 0° 2° (N) 2,859 6.8 -12.6°
